Location: Appeville
(49.3218°N, 1.3427°W)
Time: 00:15:55
(UTC+00:00)

PAYLOAD B - Pass Details

Date: 08 December 2019
Orbit: 850 x 871 km, 99.1° (Epoch: 27 January)

Event Time Altitude Azimuth Distance (km) Brightness Sun altitude
Rises 05:59:49 0° 13° (NNE) 3,430 7.3 -16.6°
Reaches altitude 10° 06:02:11 10° 11° (NNE) 2,492 6.6 -16.2°
Maximum altitude 06:07:41 69° 290° (WNW) 913 4.1 -15.3°
Drops below altitude 10° 06:13:09 10° 208° (SSW) 2,485 6.5 -14.5°
Sets 06:15:32 0° 206° (SSW) 3,421 7.3 -14.1°
